TimeCDT,TemperatureF,Dew PointF,Humidity,Sea Level PressureIn,VisibilityMPH,Wind Direction,Wind SpeedMPH,Gust SpeedMPH,PrecipitationIn,Events,Conditions,WindDirDegrees,DateUTC
12:35 AM,80.6,80.6,100,29.93,10.0,SW,12.7,-,N/A,,Clear,220,2013-06-13 05:35:00
12:55 AM,80.6,80.6,100,29.92,10.0,SW,11.5,-,N/A,,Unknown,220,2013-06-13 05:55:00
1:15 AM,78.8,78.8,100,29.92,10.0,SW,11.5,-,N/A,,Clear,230,2013-06-13 06:15:00
1:35 AM,78.8,78.8,100,29.93,10.0,SW,11.5,-,N/A,,Clear,220,2013-06-13 06:35:00
1:55 AM,78.8,78.8,100,29.92,10.0,SW,11.5,-,N/A,,Unknown,220,2013-06-13 06:55:00
2:15 AM,78.8,78.8,100,29.93,10.0,SW,9.2,-,N/A,,Clear,230,2013-06-13 07:15:00
2:35 AM,78.8,78.8,100,29.93,10.0,SW,8.1,-,N/A,,Clear,230,2013-06-13 07:35:00
2:55 AM,77.0,77.0,100,29.92,10.0,SW,9.2,-,N/A,,Clear,220,2013-06-13 07:55:00
3:15 AM,77.0,77.0,100,29.92,10.0,SW,10.4,-,N/A,,Clear,220,2013-06-13 08:15:00
3:35 AM,77.0,77.0,100,29.92,10.0,SW,9.2,-,N/A,,Clear,230,2013-06-13 08:35:00
3:55 AM,78.8,78.8,100,29.92,10.0,WSW,11.5,-,N/A,,Clear,240,2013-06-13 08:55:00
4:15 AM,78.8,78.8,100,29.91,10.0,WSW,10.4,-,N/A,,Clear,240,2013-06-13 09:15:00
4:35 AM,78.8,78.8,100,29.91,10.0,WSW,9.2,-,N/A,,Clear,240,2013-06-13 09:35:00
4:55 AM,78.8,78.8,100,29.91,10.0,WSW,10.4,-,N/A,,Clear,240,2013-06-13 09:55:00
5:15 AM,78.8,78.8,100,29.91,10.0,WSW,9.2,-,N/A,,Clear,240,2013-06-13 10:15:00
5:35 AM,77.0,77.0,100,29.91,10.0,WSW,9.2,-,N/A,,Clear,240,2013-06-13 10:35:00
5:55 AM,78.8,78.8,100,29.91,10.0,SW,10.4,-,N/A,,Clear,230,2013-06-13 10:55:00
6:15 AM,78.8,78.8,100,29.90,10.0,WSW,10.4,-,N/A,,Clear,250,2013-06-13 11:15:00
6:35 AM,78.8,78.8,100,29.90,-9999.0,WSW,12.7,-,N/A,,Unknown,240,2013-06-13 11:35:00
6:55 AM,78.8,78.8,100,29.90,10.0,WSW,12.7,-,N/A,,Clear,240,2013-06-13 11:55:00
7:15 AM,80.6,80.6,100,29.90,10.0,WSW,12.7,-,N/A,,Clear,240,2013-06-13 12:15:00
7:35 AM,80.6,80.6,100,29.89,10.0,WSW,12.7,-,N/A,,Partly Cloudy,240,2013-06-13 12:35:00
7:55 AM,80.6,80.6,100,29.89,10.0,WSW,12.7,-,N/A,,Partly Cloudy,240,2013-06-13 12:55:00
8:15 AM,82.4,82.4,100,29.90,10.0,WSW,10.4,-,N/A,,Mostly Cloudy,250,2013-06-13 13:15:00
8:35 AM,82.4,80.6,94,29.90,10.0,WSW,11.5,-,N/A,,Mostly Cloudy,240,2013-06-13 13:35:00
8:55 AM,82.4,80.6,94,29.90,10.0,WSW,10.4,-,N/A,,Overcast,250,2013-06-13 13:55:00
9:15 AM,84.2,80.6,89,29.89,10.0,WSW,15.0,-,N/A,,Mostly Cloudy,240,2013-06-13 14:15:00
9:35 AM,86.0,80.6,84,29.88,10.0,WSW,17.3,-,N/A,,Clear,240,2013-06-13 14:35:00
9:55 AM,86.0,80.6,84,29.88,10.0,WSW,10.4,26.5,N/A,,Clear,250,2013-06-13 14:55:00
10:15 AM,86.0,80.6,84,29.87,10.0,WSW,15.0,-,N/A,,Partly Cloudy,250,2013-06-13 15:15:00
10:35 AM,87.8,80.6,79,29.88,10.0,WSW,13.8,-,N/A,,Partly Cloudy,250,2013-06-13 15:35:00
10:55 AM,87.8,78.8,75,29.87,10.0,West,13.8,-,N/A,,Scattered Clouds,260,2013-06-13 15:55:00
11:15 AM,87.8,80.6,79,29.87,10.0,WSW,9.2,-,N/A,,Scattered Clouds,250,2013-06-13 16:15:00
11:35 AM,87.8,80.6,79,29.87,10.0,WSW,11.5,-,N/A,,Mostly Cloudy,250,2013-06-13 16:35:00
11:55 AM,89.6,78.8,70,29.86,10.0,WSW,11.5,-,N/A,,Scattered Clouds,250,2013-06-13 16:55:00
12:15 PM,87.8,78.8,75,29.86,10.0,WSW,15.0,-,N/A,,Mostly Cloudy,250,2013-06-13 17:15:00
12:35 PM,89.6,78.8,70,29.85,10.0,West,12.7,-,N/A,,Scattered Clouds,260,2013-06-13 17:35:00
12:55 PM,89.6,78.8,70,29.85,10.0,West,10.4,-,N/A,,Scattered Clouds,260,2013-06-13 17:55:00
1:15 PM,91.4,78.8,66,29.85,10.0,WSW,10.4,21.9,N/A,,Partly Cloudy,250,2013-06-13 18:15:00
1:35 PM,89.6,77.0,66,29.85,10.0,West,9.2,21.9,N/A,,Scattered Clouds,270,2013-06-13 18:35:00
1:55 PM,89.6,75.2,62,29.84,10.0,West,8.1,-,N/A,,Mostly Cloudy,270,2013-06-13 18:55:00
2:15 PM,89.6,75.2,62,29.85,10.0,West,8.1,-,N/A,,Partly Cloudy,280,2013-06-13 19:15:00
2:35 PM,91.4,75.2,59,29.85,10.0,NNW,12.7,-,N/A,,Partly Cloudy,340,2013-06-13 19:35:00
2:55 PM,89.6,73.4,59,29.84,10.0,NW,12.7,21.9,N/A,,Partly Cloudy,310,2013-06-13 19:55:00
3:15 PM,89.6,71.6,55,29.85,10.0,NNW,13.8,-,N/A,,Clear,340,2013-06-13 20:15:00
3:35 PM,89.6,69.8,52,29.85,10.0,NNW,9.2,-,N/A,,Clear,330,2013-06-13 20:35:00
3:55 PM,87.8,71.6,58,29.85,10.0,NNW,13.8,-,N/A,,Clear,330,2013-06-13 20:55:00
4:15 PM,87.8,71.6,58,29.85,10.0,NW,9.2,-,N/A,,Partly Cloudy,320,2013-06-13 21:15:00
4:35 PM,86.0,71.6,62,29.85,10.0,NNW,9.2,-,N/A,,Partly Cloudy,330,2013-06-13 21:35:00
4:55 PM,84.2,71.6,66,29.86,10.0,NNW,12.7,-,N/A,,Clear,340,2013-06-13 21:55:00
5:15 PM,82.4,69.8,66,29.87,10.0,NNW,12.7,-,N/A,,Partly Cloudy,340,2013-06-13 22:15:00
5:35 PM,82.4,66.2,58,29.87,10.0,NNW,10.4,-,N/A,,Scattered Clouds,340,2013-06-13 22:35:00
5:55 PM,82.4,69.8,66,29.87,10.0,North,10.4,-,N/A,,Mostly Cloudy,350,2013-06-13 22:55:00
6:15 PM,80.6,69.8,70,29.87,10.0,North,9.2,-,N/A,,Overcast,360,2013-06-13 23:15:00
6:35 PM,80.6,68.0,65,29.89,10.0,North,10.4,-,N/A,,Overcast,360,2013-06-13 23:35:00
6:55 PM,80.6,66.2,61,29.88,10.0,North,6.9,-,N/A,,Scattered Clouds,350,2013-06-13 23:55:00
7:15 PM,80.6,66.2,61,29.88,10.0,North,9.2,-,N/A,,Clear,350,2013-06-14 00:15:00
7:35 PM,78.8,66.2,65,29.89,10.0,North,6.9,-,N/A,,Clear,350,2013-06-14 00:35:00
7:55 PM,77.0,68.0,74,29.90,10.0,North,6.9,-,N/A,,Clear,360,2013-06-14 00:55:00
8:15 PM,75.2,68.0,78,29.91,10.0,NNW,4.6,-,N/A,,Clear,340,2013-06-14 01:15:00
8:35 PM,75.2,69.8,83,29.91,10.0,Variable,5.8,-,N/A,,Clear,0,2013-06-14 01:35:00
8:55 PM,75.2,69.8,83,29.92,10.0,NNW,3.5,-,N/A,,Clear,340,2013-06-14 01:55:00
9:15 PM,73.4,71.6,94,29.93,10.0,NNW,3.5,-,N/A,,Clear,330,2013-06-14 02:15:00
9:35 PM,73.4,71.6,94,29.94,10.0,Calm,Calm,-,N/A,,Unknown,0,2013-06-14 02:35:00
9:55 PM,73.4,73.4,100,29.95,10.0,Calm,Calm,-,N/A,,Clear,0,2013-06-14 02:55:00
10:15 PM,73.4,73.4,100,29.95,10.0,North,3.5,-,N/A,,Clear,360,2013-06-14 03:15:00
10:35 PM,71.6,71.6,100,29.96,10.0,NNW,3.5,-,N/A,,Clear,340,2013-06-14 03:35:00
10:55 PM,71.6,71.6,100,29.96,10.0,North,4.6,-,N/A,,Clear,360,2013-06-14 03:55:00
11:15 PM,71.6,71.6,100,29.96,10.0,NNE,3.5,-,N/A,,Clear,20,2013-06-14 04:15:00
11:35 PM,71.6,71.6,100,29.96,10.0,North,3.5,-,N/A,,Clear,10,2013-06-14 04:35:00
11:55 PM,71.6,71.6,100,29.96,10.0,North,3.5,-,N/A,,Unknown,10,2013-06-14 04:55:00